SM7GXQ Weather Reports


time (UTC)temp
F
wind
direction
speed
knots
gust
knots
rain 1hr
in
rain 24hr
in
rain mn
in
humidity
%
barometer
mb
20260505204504 45 58 0.9 5.2 0.00 0.00 0.00 88 1008.4
20260505201504 46 100 1.7 5.2 0.00 0.00 0.00 86 1008.3
20260505193005 49 107 0.9 6.1 0.00 0.00 0.00 79 1007.9
20260505184503 53 107 1.7 6.1 0.00 0.00 0.00 69 1007.7
20260505181503 55 86 2.6 7.0 0.00 0.00 0.00 64 1007.7
20260505180003 55 123 1.7 7.0 0.00 0.00 0.00 62 1007.6
20260505173004 57 90 2.6 8.7 0.00 0.00 0.00 60 1007.5
20260505171503 57 85 4.3 7.0 0.00 0.00 0.00 57 1007.4
20260505170004 58 76 5.2 10.4 0.00 0.00 0.00 55 1007.3
20260505163004 58 133 2.6 7.8 0.00 0.00 0.00 54 1007.4
20260505161503 58 70 4.3 10.4 0.00 0.00 0.00 51 1007.4
20260505124504 62 191 2.6 7.8 0.00 0.00 0.00 56 1007.5
20260505120005 60 220 3.5 10.4 0.00 0.00 0.00 56 1007.5
20260505114503 60 209 3.5 10.4 0.00 0.00 0.00 59 1007.5
20260505091503 57 262 2.6 6.1 0.00 0.00 0.00 61 1008.0
20260505090004 56 265 2.6 7.0 0.00 0.00 0.00 66 1007.9
20260505084504 55 269 1.7 5.2 0.00 0.00 0.00 69 1007.9
20260505083004 55 252 2.6 6.1 0.00 0.00 0.00 67 1008.0
20260505074504 54 249 2.6 5.2 0.00 0.00 0.00 69 1008.1
20260505071504 52 275 2.6 5.2 0.00 0.00 0.00 71 1008.2
20260505064504 51 283 1.7 5.2 0.00 0.00 0.00 75 1008.2
20260505063005 50 277 2.6 7.0 0.00 0.00 0.00 76 1008.2
20260505060004 49 276 2.6 7.0 0.00 0.00 0.00 79 1008.3
20260505054504 49 268 2.6 7.0 0.00 0.00 0.00 82 1008.3
20260505053005 48 276 4.3 7.0 0.00 0.00 0.00 82 1008.2
20260505040005 47 250 2.6 7.0 0.00 0.00 0.00 85 1007.8
20260505033004 46 254 1.7 7.8 0.00 0.00 0.00 85 1007.6
20260505023004 46 263 1.7 6.1 0.00 0.00 0.00 83 1007.6
20260505020004 47 267 2.6 7.0 0.00 0.00 0.00 82 1007.6
20260505014504 47 267 2.6 7.8 0.00 0.00 0.00 81 1007.6
20260505013003 47 262 2.6 7.0 0.00 0.00 0.00 81 1007.6
20260505011504 48 238 2.6 6.1 0.00 0.00 0.00 79 1007.6
20260505010005 48 258 1.7 6.1 0.00 0.00 0.00 78 1007.6
20260505004504 49 247 2.6 6.1 0.00 0.00 0.00 77 1007.6
20260505000004 49 225 2.6 7.0 0.00 0.00 0.00 74 1007.6
20260504231504 50 235 2.6 5.2 0.00 0.01 0.00 69 1007.6
20260504224504 51 251 1.7 6.1 0.00 0.02 0.00 68 1007.7
20260504223004 51 250 1.7 6.1 0.00 0.02 0.00 67 1007.9
20260504214504 52 256 1.7 4.3 0.00 0.02 0.03 65 1007.9
20260504213006 53 245 0.9 6.1 0.00 0.02 0.03 65 1007.9
20260504210005 53 241 1.7 6.1 0.00 0.02 0.03 67 1007.7